Year,Month,Day,Hour,Minute,Value (Times are PST for temperature in C)
2008,07,25,00,00,13.50
2008,07,25,00,01,13.40
2008,07,25,00,02,13.40
2008,07,25,00,03,13.40
2008,07,25,00,04,13.40
2008,07,25,00,05,13.40
2008,07,25,00,06,13.30
2008,07,25,00,07,13.30
2008,07,25,00,08,13.30
2008,07,25,00,09,13.30
2008,07,25,00,10,13.30
2008,07,25,00,11,13.30
2008,07,25,00,12,13.30
2008,07,25,00,13,13.30
2008,07,25,00,14,13.20
2008,07,25,00,15,13.20
2008,07,25,00,16,13.20
2008,07,25,00,17,13.20
2008,07,25,00,18,13.10
2008,07,25,00,19,13.10
2008,07,25,00,20,13.10
2008,07,25,00,21,13.10
2008,07,25,00,22,13.10
2008,07,25,00,23,13.10
2008,07,25,00,24,13.00
2008,07,25,00,25,13.00
2008,07,25,00,26,13.00
2008,07,25,00,27,13.00
2008,07,25,00,28,12.90
2008,07,25,00,29,12.90
2008,07,25,00,30,12.90
2008,07,25,00,31,12.90
2008,07,25,00,32,12.90
2008,07,25,00,33,12.90
2008,07,25,00,34,12.90
2008,07,25,00,35,12.90
2008,07,25,00,36,12.90
2008,07,25,00,37,12.90
2008,07,25,00,38,12.90
2008,07,25,00,39,12.90
2008,07,25,00,40,12.90
2008,07,25,00,41,12.80
2008,07,25,00,42,12.80
2008,07,25,00,43,12.80
2008,07,25,00,44,12.80
2008,07,25,00,45,12.80
2008,07,25,00,46,12.80
2008,07,25,00,47,12.80
2008,07,25,00,48,12.80
2008,07,25,00,49,12.80
2008,07,25,00,50,12.80
2008,07,25,00,51,12.80
2008,07,25,00,52,12.90
2008,07,25,00,53,12.90
2008,07,25,00,54,12.90
2008,07,25,00,55,12.90
2008,07,25,00,56,12.90
2008,07,25,00,57,12.90
2008,07,25,00,58,12.90
2008,07,25,00,59,13.00
2008,07,25,01,00,13.00
2008,07,25,01,01,13.00
2008,07,25,01,02,13.00
2008,07,25,01,03,13.00
2008,07,25,01,04,13.10
2008,07,25,01,05,13.10
2008,07,25,01,06,13.10
2008,07,25,01,07,13.10
2008,07,25,01,08,13.10
2008,07,25,01,09,13.10
2008,07,25,01,10,13.10
2008,07,25,01,11,13.20
2008,07,25,01,12,13.20
2008,07,25,01,13,13.20
2008,07,25,01,14,13.20
2008,07,25,01,15,13.20
2008,07,25,01,16,13.20
2008,07,25,01,17,13.10
2008,07,25,01,18,13.10
2008,07,25,01,19,13.00
2008,07,25,01,20,13.00
2008,07,25,01,21,12.90
2008,07,25,01,22,12.90
2008,07,25,01,23,12.90
2008,07,25,01,24,12.80
2008,07,25,01,25,12.80
2008,07,25,01,26,12.80
2008,07,25,01,27,12.70
2008,07,25,01,28,12.70
2008,07,25,01,29,12.70
2008,07,25,01,30,12.60
2008,07,25,01,31,12.60
2008,07,25,01,32,12.60
2008,07,25,01,33,12.50
2008,07,25,01,34,12.50
2008,07,25,01,35,12.40
2008,07,25,01,36,12.40
2008,07,25,01,37,12.40
2008,07,25,01,38,12.40
2008,07,25,01,39,12.30
2008,07,25,01,40,12.30
2008,07,25,01,41,12.30
2008,07,25,01,42,12.30
2008,07,25,01,43,12.30
2008,07,25,01,44,12.30
2008,07,25,01,45,12.20
2008,07,25,01,46,12.20
2008,07,25,01,47,12.20
2008,07,25,01,48,12.20
2008,07,25,01,49,12.20
2008,07,25,01,50,12.20
2008,07,25,01,51,12.20
2008,07,25,01,52,12.10
2008,07,25,01,53,12.10
2008,07,25,01,54,12.10
2008,07,25,01,55,12.10
2008,07,25,01,56,12.10
2008,07,25,01,57,12.10
2008,07,25,01,58,12.10
2008,07,25,01,59,12.10
2008,07,25,02,00,12.00
2008,07,25,02,01,12.00
2008,07,25,02,02,12.00
2008,07,25,02,03,12.00
2008,07,25,02,04,12.00
2008,07,25,02,05,11.90
2008,07,25,02,06,11.90
2008,07,25,02,07,11.90
2008,07,25,02,08,11.90
2008,07,25,02,09,11.90
2008,07,25,02,10,11.90
2008,07,25,02,11,11.90
2008,07,25,02,12,11.90
2008,07,25,02,13,11.90
2008,07,25,02,14,11.90
2008,07,25,02,15,11.90
2008,07,25,02,16,11.90
2008,07,25,02,17,11.80
2008,07,25,02,18,11.80
2008,07,25,02,19,11.80
2008,07,25,02,20,11.80
2008,07,25,02,21,11.80
2008,07,25,02,22,11.80
2008,07,25,02,23,11.80
2008,07,25,02,24,11.80
2008,07,25,02,25,11.80
2008,07,25,02,26,11.80
2008,07,25,02,27,11.80
2008,07,25,02,28,11.80
2008,07,25,02,29,11.80
2008,07,25,02,30,11.80
2008,07,25,02,31,11.70
2008,07,25,02,32,11.70
2008,07,25,02,33,11.70
2008,07,25,02,34,11.70
2008,07,25,02,35,11.70
2008,07,25,02,36,11.60
2008,07,25,02,37,11.60
2008,07,25,02,38,11.60
2008,07,25,02,39,11.60
2008,07,25,02,40,11.50
2008,07,25,02,41,11.50
2008,07,25,02,42,11.50
2008,07,25,02,43,11.50
2008,07,25,02,44,11.40
2008,07,25,02,45,11.40
2008,07,25,02,46,11.40
2008,07,25,02,47,11.40
2008,07,25,02,48,11.40
2008,07,25,02,49,11.40
2008,07,25,02,50,11.40
2008,07,25,02,51,11.30
2008,07,25,02,52,11.30
2008,07,25,02,53,11.30
2008,07,25,02,54,11.30
2008,07,25,02,55,11.30
2008,07,25,02,56,11.30
2008,07,25,02,57,11.20
2008,07,25,02,58,11.20
2008,07,25,02,59,11.20
2008,07,25,03,00,11.20
2008,07,25,03,01,11.20
2008,07,25,03,02,11.20
2008,07,25,03,03,11.20
2008,07,25,03,04,11.20
2008,07,25,03,05,11.20
2008,07,25,03,06,11.20
2008,07,25,03,07,11.10
2008,07,25,03,08,11.10
2008,07,25,03,09,11.10
2008,07,25,03,10,11.10
2008,07,25,03,11,11.10
2008,07,25,03,12,11.10
2008,07,25,03,13,11.10
2008,07,25,03,14,11.10
2008,07,25,03,15,11.10
2008,07,25,03,16,11.10
2008,07,25,03,17,11.10
2008,07,25,03,18,11.10
2008,07,25,03,19,11.10
2008,07,25,03,20,11.10
2008,07,25,03,21,11.00
2008,07,25,03,22,11.00
2008,07,25,03,23,11.00
2008,07,25,03,24,11.00
2008,07,25,03,25,11.00
2008,07,25,03,26,11.00
2008,07,25,03,27,10.90
2008,07,25,03,28,10.90
2008,07,25,03,29,10.90
2008,07,25,03,30,10.90
2008,07,25,03,31,10.90
2008,07,25,03,32,11.00
2008,07,25,03,33,11.00
2008,07,25,03,34,11.00
2008,07,25,03,35,11.00
2008,07,25,03,36,11.00
2008,07,25,03,37,11.00
2008,07,25,03,38,11.00
2008,07,25,03,39,10.90
2008,07,25,03,40,10.90
2008,07,25,03,41,10.90
2008,07,25,03,42,10.90
2008,07,25,03,43,10.90
2008,07,25,03,44,10.90
2008,07,25,03,45,10.90
2008,07,25,03,46,10.80
2008,07,25,03,47,10.80
2008,07,25,03,48,10.80
2008,07,25,03,49,10.80
2008,07,25,03,50,10.80
2008,07,25,03,51,10.80
2008,07,25,03,52,10.70
2008,07,25,03,53,10.70
2008,07,25,03,54,10.70
2008,07,25,03,55,10.70
2008,07,25,03,56,10.70
2008,07,25,03,57,10.70
2008,07,25,03,58,10.70
2008,07,25,03,59,10.70
2008,07,25,04,00,10.70
2008,07,25,04,01,10.60
2008,07,25,04,02,10.60
2008,07,25,04,03,10.60
2008,07,25,04,04,10.60
2008,07,25,04,05,10.60
2008,07,25,04,06,10.60
2008,07,25,04,07,10.60
2008,07,25,04,08,10.50
2008,07,25,04,09,10.50
2008,07,25,04,10,10.50
2008,07,25,04,11,10.50
2008,07,25,04,12,10.50
2008,07,25,04,13,10.40
2008,07,25,04,14,10.40
2008,07,25,04,15,10.40
2008,07,25,04,16,10.40
2008,07,25,04,17,10.40
2008,07,25,04,18,10.40
2008,07,25,04,19,10.40
2008,07,25,04,20,10.40
2008,07,25,04,21,10.40
2008,07,25,04,22,10.40
2008,07,25,04,23,10.40
2008,07,25,04,24,10.40
2008,07,25,04,25,10.40
2008,07,25,04,26,10.40
2008,07,25,04,27,10.40
2008,07,25,04,28,10.40
2008,07,25,04,29,10.30
2008,07,25,04,30,10.30
2008,07,25,04,31,10.30
2008,07,25,04,32,10.30
2008,07,25,04,33,10.30
2008,07,25,04,34,10.30
2008,07,25,04,35,10.30
2008,07,25,04,36,10.30
2008,07,25,04,37,10.30
2008,07,25,04,38,10.40
2008,07,25,04,39,10.40
2008,07,25,04,40,10.40
2008,07,25,04,41,10.40
2008,07,25,04,42,10.40
2008,07,25,04,43,10.40
2008,07,25,04,44,10.30
2008,07,25,04,45,10.30
2008,07,25,04,46,10.40
2008,07,25,04,47,10.40
2008,07,25,04,48,10.40
2008,07,25,04,49,10.40
2008,07,25,04,50,10.40
2008,07,25,04,51,10.40
2008,07,25,04,52,10.40
2008,07,25,04,53,10.40
2008,07,25,04,54,10.40
2008,07,25,04,55,10.40
2008,07,25,04,56,10.50
2008,07,25,04,57,10.50
2008,07,25,04,58,10.50
2008,07,25,04,59,10.50
2008,07,25,05,00,10.50
2008,07,25,05,01,10.50
2008,07,25,05,02,10.60
2008,07,25,05,03,10.50
2008,07,25,05,04,10.50
2008,07,25,05,05,10.50
2008,07,25,05,06,10.50
2008,07,25,05,07,10.50
2008,07,25,05,08,10.40
2008,07,25,05,09,10.40
2008,07,25,05,10,10.40
2008,07,25,05,11,10.30
2008,07,25,05,12,10.30
2008,07,25,05,13,10.30
2008,07,25,05,14,10.30
2008,07,25,05,15,10.30
2008,07,25,05,16,10.30
2008,07,25,05,17,10.30
2008,07,25,05,18,10.30
2008,07,25,05,19,10.30
2008,07,25,05,20,10.30
2008,07,25,05,21,10.20
2008,07,25,05,22,10.20
2008,07,25,05,23,10.20
2008,07,25,05,24,10.20
2008,07,25,05,25,10.20
2008,07,25,05,26,10.20
2008,07,25,05,27,10.20
2008,07,25,05,28,10.20
2008,07,25,05,29,10.20
2008,07,25,05,30,10.20
2008,07,25,05,31,10.20
2008,07,25,05,32,10.20
2008,07,25,05,33,10.20
2008,07,25,05,34,10.20
2008,07,25,05,35,10.20
2008,07,25,05,36,10.10
2008,07,25,05,37,10.10
2008,07,25,05,38,10.10
2008,07,25,05,39,10.10
2008,07,25,05,40,10.10
2008,07,25,05,41,10.10
2008,07,25,05,42,10.00
2008,07,25,05,43,10.00
2008,07,25,05,44,10.00
2008,07,25,05,45,10.00
2008,07,25,05,46,10.10
2008,07,25,05,47,10.10
2008,07,25,05,48,10.00
2008,07,25,05,49,10.00
2008,07,25,05,50,10.00
2008,07,25,05,51,10.00
2008,07,25,05,52,10.00
2008,07,25,05,53,10.00
2008,07,25,05,54,10.00
2008,07,25,05,55,9.90
2008,07,25,05,56,9.90
2008,07,25,05,57,9.90
2008,07,25,05,58,9.90
2008,07,25,05,59,9.90
2008,07,25,06,00,9.90
2008,07,25,06,01,9.90
2008,07,25,06,02,9.90
2008,07,25,06,03,9.90
2008,07,25,06,04,9.90
2008,07,25,06,05,9.90
2008,07,25,06,06,9.90
2008,07,25,06,07,9.90
2008,07,25,06,08,9.90
2008,07,25,06,09,10.00
2008,07,25,06,10,10.00
2008,07,25,06,11,10.10
2008,07,25,06,12,10.10
2008,07,25,06,13,10.10
2008,07,25,06,14,10.10
2008,07,25,06,15,10.20
2008,07,25,06,16,10.20
2008,07,25,06,17,10.20
2008,07,25,06,18,10.30
2008,07,25,06,19,10.30
2008,07,25,06,20,10.40
2008,07,25,06,21,10.40
2008,07,25,06,22,10.40
2008,07,25,06,23,10.40
2008,07,25,06,24,10.50
2008,07,25,06,25,10.50
2008,07,25,06,26,10.50
2008,07,25,06,27,10.50
2008,07,25,06,28,10.50
2008,07,25,06,29,10.50
2008,07,25,06,30,10.50
2008,07,25,06,31,10.50
2008,07,25,06,32,10.50
2008,07,25,06,33,10.50
2008,07,25,06,34,10.60
2008,07,25,06,35,10.60
2008,07,25,06,36,10.60
2008,07,25,06,37,10.60
2008,07,25,06,38,10.70
2008,07,25,06,39,10.70
2008,07,25,06,40,10.70
2008,07,25,06,41,10.70
2008,07,25,06,42,10.80
2008,07,25,06,43,10.80
2008,07,25,06,44,10.80
2008,07,25,06,45,10.90
2008,07,25,06,46,10.90
2008,07,25,06,47,10.90
2008,07,25,06,48,11.00
2008,07,25,06,49,11.10
2008,07,25,06,50,11.20
2008,07,25,06,51,11.20
2008,07,25,06,52,11.40
2008,07,25,06,53,11.50
2008,07,25,06,54,11.60
2008,07,25,06,55,11.70
2008,07,25,06,56,11.90
2008,07,25,06,57,12.00
2008,07,25,06,58,12.10
2008,07,25,06,59,12.20
2008,07,25,07,00,12.30
2008,07,25,07,01,12.50
2008,07,25,07,02,12.60
2008,07,25,07,03,12.70
2008,07,25,07,04,12.80
2008,07,25,07,05,12.90
2008,07,25,07,06,13.00
2008,07,25,07,07,13.10
2008,07,25,07,08,13.20
2008,07,25,07,09,13.30
2008,07,25,07,10,13.50
2008,07,25,07,11,13.60
2008,07,25,07,12,13.70
2008,07,25,07,13,13.70
2008,07,25,07,14,13.70
2008,07,25,07,15,13.70
2008,07,25,07,16,13.70
2008,07,25,07,17,13.70
2008,07,25,07,18,13.70
2008,07,25,07,19,13.60
2008,07,25,07,20,13.60
2008,07,25,07,21,13.60
2008,07,25,07,22,13.70
2008,07,25,07,23,13.70
2008,07,25,07,24,13.70
2008,07,25,07,25,13.70
2008,07,25,07,26,13.70
2008,07,25,07,27,13.80
2008,07,25,07,28,13.80
2008,07,25,07,29,13.80
2008,07,25,07,30,13.90
2008,07,25,07,31,14.00
2008,07,25,07,32,14.10
2008,07,25,07,33,14.20
2008,07,25,07,34,14.30
2008,07,25,07,35,14.30
2008,07,25,07,36,14.40
2008,07,25,07,37,14.50
2008,07,25,07,38,14.60
2008,07,25,07,39,14.70
2008,07,25,07,40,14.90
2008,07,25,07,41,15.00
2008,07,25,07,42,15.00
2008,07,25,07,43,15.00
2008,07,25,07,44,15.20
2008,07,25,07,45,15.30
2008,07,25,07,46,15.30
2008,07,25,07,47,15.30
2008,07,25,07,48,15.20
2008,07,25,07,49,15.20
2008,07,25,07,50,15.10
2008,07,25,07,51,15.10
2008,07,25,07,52,15.00
2008,07,25,07,53,15.00
2008,07,25,07,54,15.10
2008,07,25,07,55,15.10
2008,07,25,07,56,15.20
2008,07,25,07,57,15.30
2008,07,25,07,58,15.40
2008,07,25,07,59,15.60
2008,07,25,08,00,15.70
2008,07,25,08,01,15.80
2008,07,25,08,02,15.80
2008,07,25,08,03,15.90
2008,07,25,08,04,16.00
2008,07,25,08,05,16.10
2008,07,25,08,06,16.20
2008,07,25,08,07,16.20
2008,07,25,08,08,16.30
2008,07,25,08,09,16.30
2008,07,25,08,10,16.40
2008,07,25,08,11,16.50
2008,07,25,08,12,16.50
2008,07,25,08,13,16.50
2008,07,25,08,14,16.50
2008,07,25,08,15,16.50
2008,07,25,08,16,16.50
2008,07,25,08,17,16.50
2008,07,25,08,18,16.40
2008,07,25,08,19,16.40
2008,07,25,08,20,16.40
2008,07,25,08,21,16.40
2008,07,25,08,22,16.40
2008,07,25,08,23,16.40
2008,07,25,08,24,16.40
2008,07,25,08,25,16.40
2008,07,25,08,26,16.30
2008,07,25,08,27,16.30
2008,07,25,08,28,16.30
2008,07,25,08,29,16.30
2008,07,25,08,30,16.30
2008,07,25,08,31,16.30
2008,07,25,08,32,16.40
2008,07,25,08,33,16.40
2008,07,25,08,34,16.40
2008,07,25,08,35,16.50
2008,07,25,08,36,16.50
2008,07,25,08,37,16.50
2008,07,25,08,38,16.60
2008,07,25,08,39,16.60
2008,07,25,08,40,16.60
2008,07,25,08,41,16.70
2008,07,25,08,42,16.70
2008,07,25,08,43,16.60
2008,07,25,08,44,16.60
2008,07,25,08,45,16.60
2008,07,25,08,46,16.50
2008,07,25,08,47,16.50
2008,07,25,08,48,16.50
2008,07,25,08,49,16.50
2008,07,25,08,50,16.50
2008,07,25,08,51,16.40
2008,07,25,08,52,16.40
2008,07,25,08,53,16.30
2008,07,25,08,54,16.30
2008,07,25,08,55,16.30
2008,07,25,08,56,16.30
2008,07,25,08,57,16.20
2008,07,25,08,58,16.10
2008,07,25,08,59,16.10
2008,07,25,09,00,16.10
2008,07,25,09,01,16.10
2008,07,25,09,02,16.10
2008,07,25,09,03,16.10
2008,07,25,09,04,16.10
2008,07,25,09,05,16.10
2008,07,25,09,06,16.10
2008,07,25,09,07,16.20
2008,07,25,09,08,16.30
2008,07,25,09,09,16.30
2008,07,25,09,10,16.40
2008,07,25,09,11,16.40
2008,07,25,09,12,16.40
2008,07,25,09,13,16.40
2008,07,25,09,14,16.40
2008,07,25,09,15,16.30
2008,07,25,09,16,16.30
2008,07,25,09,17,16.30
2008,07,25,09,18,16.20
2008,07,25,09,19,16.20
2008,07,25,09,20,16.20
2008,07,25,09,21,16.20
2008,07,25,09,22,16.20
2008,07,25,09,23,16.30
2008,07,25,09,24,16.30
2008,07,25,09,25,16.40
2008,07,25,09,26,16.40
2008,07,25,09,27,16.40
2008,07,25,09,28,16.40
2008,07,25,09,29,16.40
2008,07,25,09,30,16.40
2008,07,25,09,31,16.40
2008,07,25,09,32,16.30
2008,07,25,09,33,16.30
2008,07,25,09,34,16.20
2008,07,25,09,35,16.10
2008,07,25,09,36,16.10
2008,07,25,09,37,16.10
2008,07,25,09,38,16.20
2008,07,25,09,39,16.20
2008,07,25,09,40,16.20
2008,07,25,09,41,16.20
2008,07,25,09,42,16.20
2008,07,25,09,43,16.30
2008,07,25,09,44,16.30
2008,07,25,09,45,16.20
2008,07,25,09,46,16.20
2008,07,25,09,47,16.20
2008,07,25,09,48,16.20
2008,07,25,09,49,16.20
2008,07,25,09,50,16.20
2008,07,25,09,51,16.20
2008,07,25,09,52,16.20
2008,07,25,09,53,16.20
2008,07,25,09,54,16.10
2008,07,25,09,55,16.10
2008,07,25,09,56,16.10
2008,07,25,09,57,16.00
2008,07,25,09,58,15.80
2008,07,25,09,59,15.70
2008,07,25,10,00,15.70
2008,07,25,10,01,15.70
2008,07,25,10,02,15.70
2008,07,25,10,03,15.70
2008,07,25,10,04,15.70
2008,07,25,10,05,15.70
2008,07,25,10,06,15.60
2008,07,25,10,07,15.60
2008,07,25,10,08,15.70
2008,07,25,10,09,15.80
2008,07,25,10,10,15.90
2008,07,25,10,11,15.90
2008,07,25,10,12,15.90
2008,07,25,10,13,16.00
2008,07,25,10,14,15.90
2008,07,25,10,15,15.90
2008,07,25,10,16,15.90
2008,07,25,10,17,15.90
2008,07,25,10,18,15.90
2008,07,25,10,19,16.00
2008,07,25,10,20,16.00
2008,07,25,10,21,16.10
2008,07,25,10,22,16.20
2008,07,25,10,23,16.10
2008,07,25,10,24,16.10
2008,07,25,10,25,16.10
2008,07,25,10,26,16.10
2008,07,25,10,27,16.10
2008,07,25,10,28,16.10
2008,07,25,10,29,16.10
2008,07,25,10,30,16.20
2008,07,25,10,31,16.20
2008,07,25,10,32,16.20
2008,07,25,10,33,16.20
2008,07,25,10,34,16.30
2008,07,25,10,35,16.30
2008,07,25,10,36,16.30
2008,07,25,10,37,16.40
2008,07,25,10,38,16.40
2008,07,25,10,39,16.40
2008,07,25,10,40,16.40
2008,07,25,10,41,16.40
2008,07,25,10,42,16.30
2008,07,25,10,43,16.20
2008,07,25,10,44,16.20
2008,07,25,10,45,16.30
2008,07,25,10,46,16.30
2008,07,25,10,47,16.40
2008,07,25,10,48,16.40
2008,07,25,10,49,16.40
2008,07,25,10,50,16.40
2008,07,25,10,51,16.30
2008,07,25,10,52,16.30
2008,07,25,10,53,16.30
2008,07,25,10,54,16.30
2008,07,25,10,55,16.30
2008,07,25,10,56,16.20
2008,07,25,10,57,16.20
2008,07,25,10,58,16.20
2008,07,25,10,59,16.20
2008,07,25,11,00,16.10
2008,07,25,11,01,16.20
2008,07,25,11,02,16.20
2008,07,25,11,03,16.30
2008,07,25,11,04,16.30
2008,07,25,11,05,16.30
2008,07,25,11,06,16.30
2008,07,25,11,07,16.30
2008,07,25,11,08,16.20
2008,07,25,11,09,16.20
2008,07,25,11,10,16.20
2008,07,25,11,11,16.20
2008,07,25,11,12,16.20
2008,07,25,11,13,16.20
2008,07,25,11,14,16.10
2008,07,25,11,15,16.10
2008,07,25,11,16,16.10
2008,07,25,11,17,16.10
2008,07,25,11,18,16.10
2008,07,25,11,19,16.10
2008,07,25,11,20,16.20
2008,07,25,11,21,16.20
2008,07,25,11,22,16.20
2008,07,25,11,23,16.10
2008,07,25,11,24,16.10
2008,07,25,11,25,16.10
2008,07,25,11,26,16.10
2008,07,25,11,27,16.10
2008,07,25,11,28,16.10
2008,07,25,11,29,16.10
2008,07,25,11,30,16.00
2008,07,25,11,31,16.00
2008,07,25,11,32,16.00
2008,07,25,11,33,16.10
2008,07,25,11,34,16.10
2008,07,25,11,35,16.20
2008,07,25,11,36,16.20
2008,07,25,11,37,16.20
2008,07,25,11,38,16.20
2008,07,25,11,39,16.20
2008,07,25,11,40,16.20
2008,07,25,11,41,16.10
2008,07,25,11,42,16.00
2008,07,25,11,43,16.00
2008,07,25,11,44,16.00
2008,07,25,11,45,16.00
2008,07,25,11,46,15.90
2008,07,25,11,47,15.90
2008,07,25,11,48,15.90
2008,07,25,11,49,15.90
2008,07,25,11,50,16.00
2008,07,25,11,51,16.00
2008,07,25,11,52,16.10
2008,07,25,11,53,16.00
2008,07,25,11,54,16.00
2008,07,25,11,55,15.90
2008,07,25,11,56,15.90
2008,07,25,11,57,15.90
2008,07,25,11,58,15.80
2008,07,25,11,59,15.90
2008,07,25,12,00,15.90
2008,07,25,12,01,15.80
2008,07,25,12,02,15.80
2008,07,25,12,03,15.80
2008,07,25,12,04,15.80
2008,07,25,12,05,15.70
2008,07,25,12,06,15.70
2008,07,25,12,07,15.70
2008,07,25,12,08,15.60
2008,07,25,12,09,15.60
2008,07,25,12,10,15.60
2008,07,25,12,11,15.60
2008,07,25,12,12,15.60
2008,07,25,12,13,15.60
2008,07,25,12,14,15.60
2008,07,25,12,15,15.70
2008,07,25,12,16,15.70
2008,07,25,12,17,15.70
2008,07,25,12,18,15.70
2008,07,25,12,19,15.70
2008,07,25,12,20,15.70
2008,07,25,12,21,15.70
2008,07,25,12,22,15.70
2008,07,25,12,23,15.70
2008,07,25,12,24,15.70
2008,07,25,12,25,15.80
2008,07,25,12,26,15.90
2008,07,25,12,27,16.00
2008,07,25,12,28,16.10
2008,07,25,12,29,16.20
2008,07,25,12,30,16.30
2008,07,25,12,31,16.40
2008,07,25,12,32,16.50
2008,07,25,12,33,16.60
2008,07,25,12,34,16.60
2008,07,25,12,35,16.70
2008,07,25,12,36,16.70
2008,07,25,12,37,16.80
2008,07,25,12,38,16.90
2008,07,25,12,39,17.00
2008,07,25,12,40,17.00
2008,07,25,12,41,17.00
2008,07,25,12,42,16.90
2008,07,25,12,43,16.90
2008,07,25,12,44,16.90
2008,07,25,12,45,16.90
2008,07,25,12,46,17.00
2008,07,25,12,47,17.10
2008,07,25,12,48,17.10
2008,07,25,12,49,17.20
2008,07,25,12,50,17.20
2008,07,25,12,51,17.30
2008,07,25,12,52,17.30
2008,07,25,12,53,17.40
2008,07,25,12,54,17.40
2008,07,25,12,55,17.50
2008,07,25,12,56,17.60
2008,07,25,12,57,17.60
2008,07,25,12,58,17.70
2008,07,25,12,59,17.70
2008,07,25,13,00,17.80
2008,07,25,13,01,17.80
2008,07,25,13,02,17.80
2008,07,25,13,03,17.80
2008,07,25,13,04,17.80
2008,07,25,13,05,17.80
2008,07,25,13,06,17.90
2008,07,25,13,07,17.90
2008,07,25,13,08,18.00
2008,07,25,13,09,18.10
2008,07,25,13,10,18.10
2008,07,25,13,11,18.20
2008,07,25,13,12,18.30
2008,07,25,13,13,18.50
2008,07,25,13,14,18.60
2008,07,25,13,15,18.70
2008,07,25,13,16,18.80
2008,07,25,13,17,18.90
2008,07,25,13,18,18.90
2008,07,25,13,19,18.90
2008,07,25,13,20,18.90
2008,07,25,13,21,18.90
2008,07,25,13,22,19.00
2008,07,25,13,23,19.10
2008,07,25,13,24,19.30
2008,07,25,13,25,19.40
2008,07,25,13,26,19.50
2008,07,25,13,27,19.70
2008,07,25,13,28,19.70
2008,07,25,13,29,19.70
2008,07,25,13,30,19.80
2008,07,25,13,31,19.90
2008,07,25,13,32,20.10
2008,07,25,13,33,20.20
2008,07,25,13,34,20.20
2008,07,25,13,35,20.10
2008,07,25,13,36,20.10
2008,07,25,13,37,20.10
2008,07,25,13,38,20.20
2008,07,25,13,39,20.20
2008,07,25,13,40,20.20
2008,07,25,13,41,20.20
2008,07,25,13,42,20.20
2008,07,25,13,43,20.20
2008,07,25,13,44,20.20
2008,07,25,13,45,20.20
2008,07,25,13,46,20.30
2008,07,25,13,47,20.20
2008,07,25,13,48,20.20
2008,07,25,13,49,20.20
2008,07,25,13,50,20.20
2008,07,25,13,51,20.20
2008,07,25,13,52,20.10
2008,07,25,13,53,19.90
2008,07,25,13,54,19.60
2008,07,25,13,55,19.40
2008,07,25,13,56,19.30
2008,07,25,13,57,19.40
2008,07,25,13,58,19.50
2008,07,25,13,59,19.60
2008,07,25,14,00,19.60
2008,07,25,14,01,19.70
2008,07,25,14,02,19.80
2008,07,25,14,03,19.80
2008,07,25,14,04,19.90
2008,07,25,14,05,20.00
2008,07,25,14,06,20.10
2008,07,25,14,07,20.10
2008,07,25,14,08,20.10
2008,07,25,14,09,20.10
2008,07,25,14,10,20.30
2008,07,25,14,11,20.50
2008,07,25,14,12,20.60
2008,07,25,14,13,20.60
2008,07,25,14,14,20.70
2008,07,25,14,15,20.80
2008,07,25,14,16,20.90
2008,07,25,14,17,21.00
2008,07,25,14,18,21.30
2008,07,25,14,19,21.50
2008,07,25,14,20,21.60
2008,07,25,14,21,21.60
2008,07,25,14,22,21.40
2008,07,25,14,23,21.30
2008,07,25,14,24,21.30
2008,07,25,14,25,21.30
2008,07,25,14,26,21.30
2008,07,25,14,27,21.30
2008,07,25,14,28,21.20
2008,07,25,14,29,21.20
2008,07,25,14,30,21.20
2008,07,25,14,31,21.20
2008,07,25,14,32,21.20
2008,07,25,14,33,21.10
2008,07,25,14,34,21.00
2008,07,25,14,35,21.00
2008,07,25,14,36,20.90
2008,07,25,14,37,20.90
2008,07,25,14,38,20.80
2008,07,25,14,39,20.80
2008,07,25,14,40,20.80
2008,07,25,14,41,20.80
2008,07,25,14,42,20.80
2008,07,25,14,43,20.80
2008,07,25,14,44,20.90
2008,07,25,14,45,21.00
2008,07,25,14,46,21.10
2008,07,25,14,47,21.10
2008,07,25,14,48,21.10
2008,07,25,14,49,21.10
2008,07,25,14,50,21.10
2008,07,25,14,51,21.10
2008,07,25,14,52,21.10
2008,07,25,14,53,21.10
2008,07,25,14,54,21.10
2008,07,25,14,55,21.10
2008,07,25,14,56,21.10
2008,07,25,14,57,21.10
2008,07,25,14,58,21.10
2008,07,25,14,59,21.00
2008,07,25,15,00,21.00
2008,07,25,15,01,21.00
2008,07,25,15,02,21.00
2008,07,25,15,03,20.90
2008,07,25,15,04,20.90
2008,07,25,15,05,20.80
2008,07,25,15,06,20.70
2008,07,25,15,07,20.60
2008,07,25,15,08,20.50
2008,07,25,15,09,20.50
2008,07,25,15,10,20.40
2008,07,25,15,11,20.40
2008,07,25,15,12,20.40
2008,07,25,15,13,20.30
2008,07,25,15,14,20.30
2008,07,25,15,15,20.20
2008,07,25,15,16,20.10
2008,07,25,15,17,20.00
2008,07,25,15,18,19.90
2008,07,25,15,19,19.90
2008,07,25,15,20,19.80
2008,07,25,15,21,19.80
2008,07,25,15,22,19.80
2008,07,25,15,23,19.70
2008,07,25,15,24,19.60
2008,07,25,15,25,19.60
2008,07,25,15,26,19.60
2008,07,25,15,27,19.60
2008,07,25,15,28,19.60
2008,07,25,15,29,19.60
2008,07,25,15,30,19.60
2008,07,25,15,31,19.50
2008,07,25,15,32,19.50
2008,07,25,15,33,19.50
2008,07,25,15,34,19.40
2008,07,25,15,35,19.40
2008,07,25,15,36,19.40
2008,07,25,15,37,19.50
2008,07,25,15,38,19.50
2008,07,25,15,39,19.60
2008,07,25,15,40,19.60
2008,07,25,15,41,19.60
2008,07,25,15,42,19.50
2008,07,25,15,43,19.50
2008,07,25,15,44,19.50
2008,07,25,15,45,19.50
2008,07,25,15,46,19.60
2008,07,25,15,47,19.50
2008,07,25,15,48,19.50
2008,07,25,15,49,19.60
2008,07,25,15,50,19.60
2008,07,25,15,51,19.70
2008,07,25,15,52,19.70
2008,07,25,15,53,19.80
2008,07,25,15,54,19.80
2008,07,25,15,55,19.80
2008,07,25,15,56,19.80
2008,07,25,15,57,19.80
2008,07,25,15,58,19.90
2008,07,25,15,59,19.90
2008,07,25,16,00,19.90
2008,07,25,16,01,20.00
2008,07,25,16,02,20.00
2008,07,25,16,03,20.00
2008,07,25,16,04,20.10
2008,07,25,16,05,20.10
2008,07,25,16,06,20.20
2008,07,25,16,07,20.30
2008,07,25,16,08,20.40
2008,07,25,16,09,20.60
2008,07,25,16,10,20.70
2008,07,25,16,11,20.80
2008,07,25,16,12,20.90
2008,07,25,16,13,21.10
2008,07,25,16,14,21.30
2008,07,25,16,15,21.40
2008,07,25,16,16,21.60
2008,07,25,16,17,21.80
2008,07,25,16,18,21.90
2008,07,25,16,19,22.00
2008,07,25,16,20,22.20
2008,07,25,16,21,22.40
2008,07,25,16,22,22.60
2008,07,25,16,23,22.80
2008,07,25,16,24,23.10
2008,07,25,16,25,23.30
2008,07,25,16,26,23.60
2008,07,25,16,27,23.80
2008,07,25,16,28,23.80
2008,07,25,16,29,23.60
2008,07,25,16,30,23.40
2008,07,25,16,31,23.20
2008,07,25,16,32,23.10
2008,07,25,16,33,23.00
2008,07,25,16,34,22.90
2008,07,25,16,35,22.80
2008,07,25,16,36,22.70
2008,07,25,16,37,22.70
2008,07,25,16,38,22.60
2008,07,25,16,39,22.60
2008,07,25,16,40,22.70
2008,07,25,16,41,22.70
2008,07,25,16,42,22.60
2008,07,25,16,43,22.60
2008,07,25,16,44,22.60
2008,07,25,16,45,22.60
2008,07,25,16,46,22.70
2008,07,25,16,47,22.70
2008,07,25,16,48,22.80
2008,07,25,16,49,22.80
2008,07,25,16,50,22.80
2008,07,25,16,51,22.90
2008,07,25,16,52,22.90
2008,07,25,16,53,23.00
2008,07,25,16,54,23.10
2008,07,25,16,55,23.20
2008,07,25,16,56,23.20
2008,07,25,16,57,23.20
2008,07,25,16,58,23.30
2008,07,25,16,59,23.30
2008,07,25,17,00,23.20
2008,07,25,17,01,23.20
2008,07,25,17,02,23.20
2008,07,25,17,03,23.30
2008,07,25,17,04,23.40
2008,07,25,17,05,23.50
2008,07,25,17,06,23.50
2008,07,25,17,07,23.60
2008,07,25,17,08,23.60
2008,07,25,17,09,23.70
2008,07,25,17,10,23.80
2008,07,25,17,11,23.90
2008,07,25,17,12,24.00
2008,07,25,17,13,24.10
2008,07,25,17,14,24.20
2008,07,25,17,15,24.30
2008,07,25,17,16,24.40
2008,07,25,17,17,24.50
2008,07,25,17,18,24.60
2008,07,25,17,19,24.70
2008,07,25,17,20,24.80